This is the latest recevied weather packets stored in our database for station/object WX0ABE-13. If no packets are shown the sender has not sent any weather packets the latest 10 day(s).
| Time | Temp. | Humidity | Pressure | Rain* | Wind** | Luminosity | Snow |
|---|---|---|---|---|---|---|---|
| 1788325593 | 21.11° C | 62% | 1015.7 hPa | 0 mm | - | 0 W/m² | - |
| 1788325288 | 21.11° C | 60% | 1015.6 hPa | 0 mm | - | 0 W/m² | - |
| 1788324984 | 21.11° C | 59% | 1015.5 hPa | 0 mm | - | 0 W/m² | - |
| 1788324680 | 21.11° C | 58% | 1015.5 hPa | 0 mm | - | 0 W/m² | - |
| 1788324380 | 21.11° C | 58% | 1015.4 hPa | 0 mm | - | 0 W/m² | - |
| 1788324076 | 21.11° C | 59% | 1015.6 hPa | 0 mm | - | 0 W/m² | - |
| 1788323771 | 21.11° C | 60% | 1015.6 hPa | 0 mm | - | 0 W/m² | - |
| 1788323466 | 21.11° C | 59% | 1015.6 hPa | 0 mm | - | 0 W/m² | - |
| 1788323165 | 21.11° C | 60% | 1015.6 hPa | 0 mm | - | 0 W/m² | - |
| 1788322861 | 21.67° C | 60% | 1015.5 hPa | 0 mm | - | 0 W/m² | - |
| 1788322560 | 21.67° C | 60% | 1015.8 hPa | 0 mm | - | 0 W/m² | - |
| 1788322256 | 21.67° C | 62% | 1015.7 hPa | 0 mm | - | 0 W/m² | - |
| 1788321955 | 21.67° C | 62% | 1015.6 hPa | 0 mm | - | 0 W/m² | - |
| 1788321650 | 21.67° C | 63% | 1015.6 hPa | 0 mm | - | 0 W/m² | - |
| 1788321349 | 21.67° C | 63% | 1015.7 hPa | 0 mm | - | 0 W/m² | - |
| 1788321044 | 21.67° C | 62% | 1015.6 hPa | 0 mm | - | 0 W/m² | - |
| 1788320744 | 21.67° C | 62% | 1015.7 hPa | 0 mm | - | 0 W/m² | - |
| 1788320443 | 22.22° C | 62% | 1015.7 hPa | 0 mm | - | 0 W/m² | - |
| 1788320142 | 22.22° C | 62% | 1015.6 hPa | 0 mm | - | 0 W/m² | - |
| 1788319837 | 22.22° C | 61% | 1015.7 hPa | 0 mm | - | 0 W/m² | - |
| 1788319536 | 22.22° C | 60% | 1015.5 hPa | 0 mm | - | 0 W/m² | - |
| 1788319231 | 22.22° C | 60% | 1015.4 hPa | 0 mm | - | 0 W/m² | - |
| 1788318926 | 22.78° C | 56% | 1015.4 hPa | 0 mm | - | 0 W/m² | - |
| 1788318623 | 22.78° C | 54% | 1015.3 hPa | 0 mm | - | 0 W/m² | - |
| 1788318323 | 23.33° C | 52% | 1015.4 hPa | 0 mm | - | 0 W/m² | - |
* Rain latest hour (hover to see other rain measurements)
** Current wind speed in m/s (hover to see current wind gust speed)